Regional Weather Roundup
Issued by NWS

Home | Current Version | Previous Version | Graphics & Text | Print | Product List | Glossary On
Versions: 1 2 3 4 5 6 7 8 9 10 11 12 13 14 15 16 17 18 19 20 21 22 23 24 25 26 27 28 29 30 31 32 33 34 35 36 37 38 39 40 41 42 43 44 45 46 47 48 49 50
000
ASUS43 KTOP 291659
RWRKS

WEATHER ROUNDUP FOR KANSAS
NATIONAL WEATHER SERVICE GOODLAND KS
1200 PM CDT MON JUN 29 2015

NOTE:  "FAIR" INDICATES FEW OR NO CLOUDS BELOW 12,000 FEET WITH NO
SIGNIFICANT WEATHER AND/OR OBSTRUCTIONS TO VISIBILITY.

KSZ001>006-013>018-027>032-041>047-291800-
NORTHWEST KANSAS

CITY           SKY/WX    TMP DP  RH WIND       PRES   REMARKS
GOODLAND       MOSUNNY   84  54  35 VRB6      30.13S
HAYS           SUNNY     86  54  32 NE6       30.06S
HILL CITY      MOSUNNY   86  51  29 CALM      30.07F
RUSSELL        SUNNY     84  53  34 VRB3      30.03F
$$

KSZ061>065-074>080-084>089-291800-
SOUTHWEST KANSAS

CITY           SKY/WX    TMP DP  RH WIND       PRES   REMARKS
DODGE CITY     SUNNY     83  50  31 NE8       30.10R
ELKHART          N/A     84  59  42 E5          N/A
GARDEN CITY    PTSUNNY   82  54  37 SE8       30.11R
GREAT BEND     SUNNY     84  52  32 NE3       30.05F
LIBERAL        CLOUDY    84  63  48 E12G17    30.11S
$$

KSZ066>073-081>083-090>101-291800-
SOUTHEAST KANSAS

CITY           SKY/WX    TMP DP  RH WIND       PRES   REMARKS
CHANUTE        SUNNY     85  62  46 N8        29.98S
COFFEYVILLE    SUNNY     87  64  46 N9        29.97R
HUTCHINSON     SUNNY     85  57  38 VRB3      30.03F
MEDICINE LODGE   N/A     88  55  32 VRB5      30.02F
NEWTON         SUNNY     82  57  42 N8        30.05S
PARSONS        SUNNY     86  65  49 NW8       29.99R
WICHITA INTL   PTSUNNY   86  57  37 N8        30.01S
WICHITA JABRA  SUNNY     84  59  42 MISG      30.02S
WINFIELD       SUNNY     86  59  39 VRB3      30.01S
$$

KSZ007>012-019>026-033>040-048>060-102>105-291800-
NORTHEAST KANSAS

CITY           SKY/WX    TMP DP  RH WIND       PRES   REMARKS
CONCORDIA      SUNNY     82  61  48 W7        30.02S
EMPORIA        SUNNY     82  59  45 NW7       30.00S
LAWRENCE       SUNNY     83  63  50 NW10      29.97R
MANHATTAN      SUNNY     85  61  44 VRB6      29.99S
OLATHE IND     SUNNY     81  66  60 W7        29.98R
OLATHE EXE     SUNNY     81  63  54 NW6G17    29.96S
SALINA         SUNNY     85  57  38 N5        30.02F
TOPEKA BILLARD SUNNY     85  63  47 NW9       29.97S
TOPEKA FORBES  SUNNY     85  60  42 NW10      29.98S
$$


USA.gov is the U.S. government's official web portal to all federal, state and local government web resources and services.